Hourly Weather Roundup
Issued by NWS

Current Version | Previous Version | Text Only | Print | Product List | Glossary On
Versions: 1 2 3 4 5 6 7 8 9 10 11 12 13 14 15 16 17 18 19 20 21 22 23 24 25 26 27 28 29 30 31 32 33 34 35 36 37 38 39 40 41 42 43 44 45 46 47 48 49 50
000
NZUS43 KILX 261310
HWRCRS

NWR Hourly Weather Roundup
National Weather Service Lincoln IL
700 AM CST SUN JAN 26 2020


CITY           SKY/WX    TMP DP  RH WIND       PRES   REMARKS
Champaign      FAIR      27  25  92 W9        30.00R WCI  18
Lawrenceville  NOT AVBL
Peoria         FAIR      23  21  92 W5        30.00R WCI  17
Springfield    FAIR      23  19  85 W5        30.02R WCI  17
$$


CITY           SKY/WX    TMP DP  RH WIND       PRES   REMARKS
Bloomington    FAIR      24  23  96 W7        29.98S WCI  16
Danville       CLOUDY    32  29  90 W12       29.97S WCI  23
Decatur        FAIR      26  22  84 W5        30.01R WCI  20
Effingham      FAIR      26  15  63 CALM      30.04S HAZE
Flora          FAIR      25  25 100 S3        30.04S FOG
Galesburg      FAIR      19  17  90 CALM      29.99S
Jacksonville   CLEAR     22  21  97 CALM      30.01S FOG
Lacon          CLOUDY    28  26  91 W7        29.99R WCI  21
La Salle       CLOUDY    28  25  89 W12G17    29.97R WCI  17
Lincoln        FAIR      27  23  85 CALM      30.02R
Litchfield     CLEAR     22  21  95 CALM      30.03R

CITY           SKY/WX    TMP DP  RH WIND       PRES   REMARKS
Macomb         CLEAR     19  18  97 SW3       30.02R FOG
Mattoon        FAIR      27  25  92 SW3       30.00S
Moline         CLOUDY    28  23  81 W6        29.96S WCI  22
Olney          FAIR      26  26 100 CALM      30.05R FOG
Paris          MOCLDY    32  29  89 CALM      30.02S
Pontiac        CLOUDY    29  27  90 N15       29.98R WCI  18
Quincy         CLEAR     20  18  92 SW3       29.99R FOG
Rantoul        FAIR      28  27  94 W7        29.99R WCI  21
Robinson       FAIR      25  24  96 S3        30.05S FOG
Taylorville    FAIR      26  24  93 W3        30.02R
Terre Haute    CLOUDY    32  27  81 W5        30.02S WCI  27
$$


CITY           SKY/WX    TMP DP  RH WIND       PRES   REMARKS
Burlington     CLEAR     16  13  88 W3        29.99R FOG
Chicago        CLOUDY    31  28  89 W10       29.89S WCI  22
Des Moines     CLOUDY    26  24  92 W6        29.97R FOG     WCI  19
Evansville     MOCLDY    32  27  81 CALM      30.06S
Indianapolis   CLOUDY    31  28  89 SW12      29.99R WCI  22
Kansas City    PTCLDY    25  24  96 SE3       29.99S FOG
Milwaukee      CLOUDY    35  30  82 W7        29.86S WCI  29
St Louis       PTCLDY    27  23  85 CALM      30.02S
$$




USA.gov is the U.S. government's official web portal to all federal, state and local government web resources and services.